| time (UTC) | temp C | wind direction | speed KPH | gust KPH | rain 1hr cm | rain 24hr cm | rain mn cm | humidity % | barometer mb |
| 20260507210639 | 16 | 347 | 9.7 | 14.5 | 0.00 | 0.00 | 0.00 | 28 | 1009.6 |
| 20260507210135 | 16 | 309 | 11.3 | 12.9 | 0.00 | 0.00 | 0.00 | 28 | 1009.7 |
| 20260507205632 | 16 | 313 | 14.5 | 17.7 | 0.00 | 0.00 | 0.00 | 28 | 1009.5 |
| 20260507205129 | 16 | 300 | 14.5 | 17.7 | 0.00 | 0.00 | 0.00 | 28 | 1009.6 |
| 20260507204625 | 16 | 264 | 8.0 | 9.7 | 0.00 | 0.00 | 0.00 | 29 | 1009.7 |
| 20260507204123 | 16 | 308 | 14.5 | 16.1 | 0.00 | 0.00 | 0.00 | 28 | 1009.7 |
| 20260507203621 | 16 | 299 | 8.0 | 9.7 | 0.00 | 0.00 | 0.00 | 28 | 1009.9 |
| 20260507203118 | 15 | 303 | 9.7 | 11.3 | 0.00 | 0.00 | 0.00 | 30 | 1009.8 |
| 20260507202613 | 16 | 303 | 6.4 | 9.7 | 0.00 | 0.00 | 0.00 | 33 | 1010.0 |
| 20260507202110 | 16 | 321 | 20.9 | 27.4 | 0.00 | 0.00 | 0.00 | 29 | 1010.1 |
| 20260507201605 | 15 | 237 | 8.0 | 9.7 | 0.00 | 0.00 | 0.00 | 27 | 1010.3 |
| 20260507201102 | 15 | 282 | 8.0 | 11.3 | 0.00 | 0.00 | 0.00 | 30 | 1010.2 |
| 20260507200557 | 15 | 296 | 17.7 | 20.9 | 0.00 | 0.00 | 0.00 | 29 | 1010.1 |
| 20260507200054 | 15 | 307 | 11.3 | 11.3 | 0.00 | 0.00 | 0.00 | 31 | 1009.9 |
| 20260507195551 | 15 | 294 | 16.1 | 17.7 | 0.00 | 0.00 | 0.00 | 30 | 1010.1 |
| 20260507195048 | 15 | 280 | 14.5 | 20.9 | 0.00 | 0.00 | 0.00 | 31 | 1010.2 |
| 20260507194544 | 15 | 333 | 11.3 | 16.1 | 0.00 | 0.00 | 0.00 | 32 | 1010.3 |
| 20260507194040 | 15 | 297 | 8.0 | 9.7 | 0.00 | 0.00 | 0.00 | 32 | 1010.4 |
| 20260507193538 | 15 | 243 | 11.3 | 14.5 | 0.00 | 0.00 | 0.00 | 29 | 1010.1 |
| 20260507193035 | 15 | 276 | 11.3 | 12.9 | 0.00 | 0.00 | 0.00 | 32 | 1010.4 |
| 20260507192531 | 15 | 250 | 12.9 | 14.5 | 0.00 | 0.00 | 0.00 | 28 | 1010.5 |
| 20260507192028 | 15 | 306 | 11.3 | 12.9 | 0.00 | 0.00 | 0.00 | 28 | 1010.3 |
| 20260507191523 | 15 | 318 | 9.7 | 11.3 | 0.00 | 0.00 | 0.00 | 28 | 1010.2 |
| 20260507191021 | 15 | 294 | 14.5 | 16.1 | 0.00 | 0.00 | 0.00 | 31 | 1010.1 |
| 20260507190518 | 15 | 243 | 6.4 | 8.0 | 0.00 | 0.00 | 0.00 | 32 | 1010.3 |
| 20260507190017 | 15 | 301 | 12.9 | 14.5 | 0.00 | 0.00 | 0.00 | 30 | 1010.5 |
| 20260507185514 | 15 | 257 | 12.9 | 16.1 | 0.00 | 0.00 | 0.00 | 30 | 1010.5 |
| 20260507185010 | 15 | 238 | 4.8 | 4.8 | 0.00 | 0.00 | 0.00 | 32 | 1010.5 |
| 20260507184509 | 15 | 286 | 11.3 | 12.9 | 0.00 | 0.00 | 0.00 | 31 | 1010.4 |
| 20260507184007 | 15 | 315 | 17.7 | 24.1 | 0.00 | 0.00 | 0.00 | 30 | 1010.5 |
| 20260507183502 | 15 | 324 | 11.3 | 12.9 | 0.00 | 0.00 | 0.00 | 33 | 1010.3 |
| 20260507183000 | 14 | 330 | 8.0 | 11.3 | 0.00 | 0.00 | 0.00 | 31 | 1010.7 |
| 20260507182455 | 14 | 277 | 11.3 | 11.3 | 0.00 | 0.00 | 0.00 | 31 | 1010.7 |
| 20260507181951 | 13 | 300 | 14.5 | 16.1 | 0.00 | 0.00 | 0.00 | 30 | 1010.8 |
| 20260507181448 | 15 | 237 | 9.7 | 12.9 | 0.00 | 0.00 | 0.00 | 31 | 1010.8 |
| 20260507180945 | 14 | 304 | 16.1 | 17.7 | 0.00 | 0.00 | 0.00 | 31 | 1010.8 |
| 20260507180441 | 14 | 319 | 8.0 | 11.3 | 0.00 | 0.00 | 0.00 | 32 | 1010.9 |
| 20260507175938 | 13 | 304 | 4.8 | 4.8 | 0.00 | 0.00 | 0.00 | 32 | 1010.9 |
| 20260507175434 | 13 | 336 | 14.5 | 16.1 | 0.00 | 0.00 | 0.00 | 33 | 1011.2 |
| 20260507174932 | 14 | 295 | 14.5 | 20.9 | 0.00 | 0.00 | 0.00 | 33 | 1011.1 |
| 20260507174429 | 13 | 233 | 6.4 | 8.0 | 0.00 | 0.00 | 0.00 | 35 | 1011.1 |
| 20260507173927 | 13 | 14 | 6.4 | 9.7 | 0.00 | 0.00 | 0.00 | 38 | 1011.2 |
| 20260507173424 | 13 | 223 | 9.7 | 11.3 | 0.00 | 0.00 | 0.00 | 38 | 1011.1 |
| 20260507172920 | 12 | 198 | 3.2 | 3.2 | 0.00 | 0.00 | 0.00 | 40 | 1011.2 |
| 20260507172417 | 12 | 240 | 4.8 | 8.0 | 0.00 | 0.00 | 0.00 | 35 | 1011.3 |
| 20260507171913 | 12 | 258 | 4.8 | 8.0 | 0.00 | 0.00 | 0.00 | 38 | 1011.3 |
| 20260507171409 | 12 | 277 | 6.4 | 8.0 | 0.00 | 0.00 | 0.00 | 37 | 1011.4 |
| 20260507170907 | 12 | 283 | 4.8 | 9.7 | 0.00 | 0.00 | 0.00 | 40 | 1011.3 |
| 20260507170403 | 12 | 284 | 14.5 | 17.7 | 0.00 | 0.00 | 0.00 | 39 | 1011.5 |
| 20260507165859 | 12 | 178 | 4.8 | 8.0 | 0.00 | 0.00 | 0.00 | 39 | 1011.7 |
| 20260507165355 | 11 | 141 | 1.6 | 3.2 | 0.00 | 0.00 | 0.00 | 37 | 1011.9 |
| 20260507164851 | 12 | 322 | 9.7 | 12.9 | 0.00 | 0.00 | 0.00 | 36 | 1011.9 |
| 20260507164349 | 12 | 228 | 8.0 | 8.0 | 0.00 | 0.00 | 0.00 | 40 | 1011.6 |
| 20260507163846 | 11 | 289 | 4.8 | 4.8 | 0.00 | 0.00 | 0.00 | 39 | 1012.0 |
| 20260507163343 | 11 | 339 | 8.0 | 11.3 | 0.00 | 0.00 | 0.00 | 41 | 1012.0 |
| 20260507162840 | 11 | 277 | 11.3 | 12.9 | 0.00 | 0.00 | 0.00 | 43 | 1012.0 |
| 20260507162335 | 11 | 286 | 6.4 | 11.3 | 0.00 | 0.00 | 0.00 | 46 | 1012.0 |
| 20260507161832 | 11 | 290 | 8.0 | 9.7 | 0.00 | 0.00 | 0.00 | 43 | 1012.1 |
| 20260507161329 | 10 | 174 | 4.8 | 8.0 | 0.00 | 0.00 | 0.00 | 49 | 1012.0 |
| 20260507160825 | 10 | 237 | 8.0 | 9.7 | 0.00 | 0.00 | 0.00 | 47 | 1012.1 |
| 20260507160321 | 10 | 268 | 6.4 | 8.0 | 0.00 | 0.00 | 0.00 | 49 | 1012.3 |
| 20260507155818 | 10 | 237 | 4.8 | 9.7 | 0.00 | 0.00 | 0.00 | 48 | 1012.2 |
| 20260507155314 | 10 | 240 | 8.0 | 9.7 | 0.00 | 0.00 | 0.00 | 48 | 1012.2 |
| 20260507154810 | 9 | 217 | 4.8 | 4.8 | 0.00 | 0.00 | 0.00 | 48 | 1012.4 |
| 20260507154308 | 9 | 312 | 6.4 | 8.0 | 0.00 | 0.00 | 0.00 | 50 | 1012.3 |
| 20260507153804 | 8 | 236 | 8.0 | 9.7 | 0.00 | 0.00 | 0.00 | 50 | 1012.3 |
| 20260507153301 | 8 | 284 | 1.6 | 3.2 | 0.00 | 0.00 | 0.00 | 50 | 1012.3 |
| 20260507152757 | 8 | 236 | 6.4 | 8.0 | 0.00 | 0.00 | 0.00 | 52 | 1012.5 |
| 20260507152254 | 8 | 148 | 1.6 | 1.6 | 0.00 | 0.00 | 0.00 | 54 | 1012.4 |
| 20260507151749 | 8 | 214 | 8.0 | 9.7 | 0.00 | 0.00 | 0.00 | 50 | 1012.2 |
| 20260507151246 | 8 | 254 | 4.8 | 4.8 | 0.00 | 0.00 | 0.00 | 51 | 1012.4 |
| 20260507150743 | 7 | 226 | 3.2 | 3.2 | 0.00 | 0.00 | 0.00 | 53 | 1012.6 |
| 20260507150240 | 7 | 249 | 3.2 | 4.8 | 0.00 | 0.00 | 0.00 | 52 | 1012.5 |
| 20260507145736 | 7 | 283 | 6.4 | 8.0 | 0.00 | 0.00 | 0.00 | 52 | 1012.6 |
| 20260507145232 | 7 | 240 | 8.0 | 9.7 | 0.00 | 0.00 | 0.00 | 51 | 1012.4 |
| 20260507144730 | 7 | 253 | 6.4 | 8.0 | 0.00 | 0.00 | 0.00 | 52 | 1012.4 |
| 20260507144227 | 6 | 231 | 3.2 | 3.2 | 0.00 | 0.00 | 0.00 | 52 | 1012.5 |
| 20260507143723 | 6 | 301 | 4.8 | 4.8 | 0.00 | 0.00 | 0.00 | 53 | 1012.5 |
| 20260507143221 | 6 | 174 | 1.6 | 1.6 | 0.00 | 0.00 | 0.00 | 53 | 1012.5 |
| 20260507142717 | 6 | 286 | 3.2 | 3.2 | 0.00 | 0.00 | 0.00 | 54 | 1012.4 |
| 20260507142214 | 6 | 127 | 0.0 | 1.6 | 0.00 | 0.00 | 0.00 | 58 | 1012.6 |
| 20260507141710 | 5 | 238 | 1.6 | 1.6 | 0.00 | 0.00 | 0.00 | 58 | 1012.5 |
| 20260507141207 | 5 | 133 | 1.6 | 1.6 | 0.00 | 0.00 | 0.00 | 58 | 1012.5 |
| 20260507140703 | 5 | 219 | 3.2 | 4.8 | 0.00 | 0.00 | 0.00 | 59 | 1012.5 |
| 20260507140201 | 5 | 209 | 1.6 | 3.2 | 0.00 | 0.00 | 0.00 | 59 | 1012.3 |
| 20260507135657 | 5 | 172 | 4.8 | 4.8 | 0.00 | 0.00 | 0.00 | 60 | 1012.5 |
| 20260507135155 | 4 | 200 | 3.2 | 3.2 | 0.00 | 0.00 | 0.00 | 62 | 1012.5 |
| 20260507134651 | 5 | 154 | 1.6 | 3.2 | 0.00 | 0.00 | 0.00 | 62 | 1012.3 |
| 20260507134147 | 3 | 73 | 1.6 | 1.6 | 0.00 | 0.00 | 0.00 | 64 | 1012.1 |
| 20260507133643 | 4 | 44 | 1.6 | 1.6 | 0.00 | 0.00 | 0.00 | 63 | 1012.3 |
| 20260507133141 | 3 | 151 | 1.6 | 1.6 | 0.00 | 0.00 | 0.00 | 61 | 1012.2 |
| 20260507132638 | 3 | 79 | 0.0 | 0.0 | 0.00 | 0.00 | 0.00 | 61 | 1012.3 |
| 20260507132134 | 3 | 105 | 0.0 | 0.0 | 0.00 | 0.00 | 0.00 | 61 | 1012.3 |
| 20260507131631 | 3 | 98 | 0.0 | 0.0 | 0.00 | 0.00 | 0.00 | 61 | 1012.5 |
| 20260507131129 | 3 | 103 | 0.0 | 0.0 | 0.00 | 0.00 | 0.00 | 61 | 1012.3 |
| 20260507130625 | 3 | 100 | 0.0 | 0.0 | 0.00 | 0.00 | 0.00 | 61 | 1012.1 |
| 20260507130123 | 3 | 88 | 0.0 | 0.0 | 0.00 | 0.00 | 0.00 | 61 | 1012.2 |
| 20260507125622 | 3 | 82 | 0.0 | 0.0 | 0.00 | 0.00 | 0.00 | 61 | 1012.1 |
| 20260507125119 | 3 | 86 | 0.0 | 0.0 | 0.00 | 0.00 | 0.00 | 61 | 1011.9 |
| 20260507124615 | 3 | 81 | 0.0 | 0.0 | 0.00 | 0.00 | 0.00 | 60 | 1012.1 |
| 20260507124113 | 3 | 74 | 0.0 | 0.0 | 0.00 | 0.00 | 0.00 | 62 | 1012.2 |
| 20260507123611 | 2 | 74 | 0.0 | 0.0 | 0.00 | 0.00 | 0.00 | 64 | 1012.0 |
| 20260507123107 | 0 | 74 | 0.0 | 0.0 | 0.00 | 0.00 | 0.00 | 68 | 1012.0 |
| 20260507122603 | 0 | 74 | 0.0 | 0.0 | 0.00 | 0.00 | 0.00 | 67 | 1012.1 |
| 20260507122059 | 0 | 73 | 0.0 | 0.0 | 0.00 | 0.00 | 0.00 | 70 | 1011.8 |
| 20260507121554 | -1 | 68 | 0.0 | 0.0 | 0.00 | 0.00 | 0.00 | 70 | 1011.9 |
| 20260507121051 | -1 | 85 | 0.0 | 0.0 | 0.00 | 0.00 | 0.00 | 70 | 1011.8 |
| 20260507120547 | -1 | 80 | 0.0 | 0.0 | 0.00 | 0.00 | 0.00 | 70 | 1011.8 |
| 20260507120044 | -1 | 81 | 0.0 | 0.0 | 0.00 | 0.00 | 0.00 | 70 | 1011.7 |
| 20260507115540 | 0 | 75 | 1.6 | 1.6 | 0.00 | 0.00 | 0.00 | 70 | 1011.5 |
| 20260507115036 | -1 | 75 | 1.6 | 1.6 | 0.00 | 0.00 | 0.00 | 71 | 1011.5 |
| 20260507114532 | -1 | 72 | 1.6 | 1.6 | 0.00 | 0.00 | 0.00 | 72 | 1011.5 |
| 20260507114030 | -1 | 73 | 3.2 | 3.2 | 0.00 | 0.00 | 0.00 | 72 | 1011.5 |
| 20260507113527 | -1 | 73 | 1.6 | 3.2 | 0.00 | 0.00 | 0.00 | 73 | 1011.5 |
| 20260507113024 | -1 | 71 | 1.6 | 1.6 | 0.00 | 0.00 | 0.00 | 72 | 1011.5 |
| 20260507112521 | -1 | 69 | 1.6 | 3.2 | 0.00 | 0.00 | 0.00 | 72 | 1011.4 |
| 20260507112018 | -1 | 70 | 1.6 | 3.2 | 0.00 | 0.00 | 0.00 | 72 | 1011.5 |
| 20260507111515 | -1 | 68 | 3.2 | 3.2 | 0.00 | 0.00 | 0.00 | 72 | 1011.5 |
| 20260507111011 | -1 | 75 | 1.6 | 3.2 | 0.00 | 0.00 | 0.00 | 72 | 1011.5 |
| 20260507110508 | -1 | 62 | 1.6 | 3.2 | 0.00 | 0.00 | 0.00 | 72 | 1011.6 |
| 20260507110005 | -1 | 72 | 1.6 | 1.6 | 0.00 | 0.00 | 0.00 | 73 | 1011.5 |
| 20260507105501 | -1 | 75 | 1.6 | 1.6 | 0.00 | 0.00 | 0.00 | 73 | 1011.7 |
| 20260507104958 | -1 | 68 | 1.6 | 1.6 | 0.00 | 0.00 | 0.00 | 73 | 1011.5 |
| 20260507104455 | -1 | 81 | 0.0 | 1.6 | 0.00 | 0.00 | 0.00 | 73 | 1011.6 |
| 20260507103950 | -2 | 82 | 0.0 | 1.6 | 0.00 | 0.00 | 0.00 | 73 | 1011.7 |
| 20260507103447 | -2 | 75 | 1.6 | 1.6 | 0.00 | 0.00 | 0.00 | 74 | 1011.7 |
| 20260507102944 | -2 | 85 | 0.0 | 1.6 | 0.00 | 0.00 | 0.00 | 74 | 1011.7 |
| 20260507102441 | -2 | 86 | 1.6 | 1.6 | 0.00 | 0.00 | 0.00 | 73 | 1011.8 |
| 20260507101937 | -2 | 63 | 1.6 | 1.6 | 0.00 | 0.00 | 0.00 | 73 | 1011.8 |
| 20260507101432 | -2 | 67 | 1.6 | 3.2 | 0.00 | 0.00 | 0.00 | 72 | 1011.7 |
| 20260507100929 | -1 | 63 | 1.6 | 1.6 | 0.00 | 0.00 | 0.00 | 72 | 1011.7 |
| 20260507100426 | -1 | 69 | 3.2 | 3.2 | 0.00 | 0.00 | 0.00 | 71 | 1011.9 |
| 20260507095925 | -1 | 87 | 0.0 | 0.0 | 0.00 | 0.00 | 0.00 | 71 | 1012.0 |
| 20260507095421 | -1 | 58 | 1.6 | 3.2 | 0.00 | 0.00 | 0.00 | 70 | 1011.9 |
| 20260507094919 | -1 | 71 | 3.2 | 3.2 | 0.00 | 0.00 | 0.00 | 69 | 1011.8 |
| 20260507094415 | -1 | 59 | 4.8 | 4.8 | 0.00 | 0.00 | 0.00 | 69 | 1011.8 |
| 20260507093912 | -1 | 58 | 4.8 | 4.8 | 0.00 | 0.00 | 0.00 | 69 | 1011.8 |
| 20260507093410 | -1 | 65 | 4.8 | 4.8 | 0.00 | 0.00 | 0.00 | 69 | 1011.8 |
| 20260507092908 | -1 | 56 | 3.2 | 3.2 | 0.00 | 0.00 | 0.00 | 69 | 1011.9 |
| 20260507092404 | -1 | 58 | 4.8 | 4.8 | 0.00 | 0.00 | 0.00 | 69 | 1011.7 |
| 20260507091901 | -1 | 58 | 4.8 | 4.8 | 0.00 | 0.00 | 0.00 | 69 | 1012.0 |
| 20260507091357 | -1 | 57 | 4.8 | 4.8 | 0.00 | 0.00 | 0.00 | 69 | 1011.9 |
| 20260507090852 | -1 | 79 | 3.2 | 3.2 | 0.00 | 0.00 | 0.00 | 68 | 1011.9 |
| 20260507090349 | 0 | 64 | 3.2 | 3.2 | 0.00 | 0.00 | 0.00 | 67 | 1012.2 |
| 20260507085846 | 0 | 56 | 4.8 | 4.8 | 0.00 | 0.00 | 0.00 | 66 | 1011.7 |
| 20260507085343 | 0 | 56 | 3.2 | 3.2 | 0.00 | 0.00 | 0.00 | 67 | 1012.0 |
| 20260507084840 | 0 | 54 | 1.6 | 3.2 | 0.00 | 0.00 | 0.00 | 67 | 1011.8 |
| 20260507084336 | 0 | 59 | 3.2 | 3.2 | 0.00 | 0.00 | 0.00 | 68 | 1011.8 |
| 20260507083834 | 0 | 59 | 1.6 | 1.6 | 0.00 | 0.00 | 0.00 | 66 | 1011.7 |
| 20260507083330 | 0 | 64 | 3.2 | 3.2 | 0.00 | 0.00 | 0.00 | 66 | 1011.8 |
| 20260507082826 | 0 | 55 | 3.2 | 3.2 | 0.00 | 0.00 | 0.00 | 66 | 1011.7 |
| 20260507082322 | 0 | 61 | 3.2 | 3.2 | 0.00 | 0.00 | 0.00 | 66 | 1011.6 |
| 20260507081820 | 0 | 57 | 3.2 | 3.2 | 0.00 | 0.00 | 0.00 | 66 | 1011.8 |
| 20260507081315 | 0 | 59 | 3.2 | 3.2 | 0.00 | 0.00 | 0.00 | 67 | 1011.7 |
| 20260507080812 | 0 | 56 | 0.0 | 0.0 | 0.00 | 0.00 | 0.00 | 68 | 1011.8 |
| 20260507080309 | -1 | 73 | 0.0 | 0.0 | 0.00 | 0.00 | 0.00 | 70 | 1011.6 |
| 20260507075804 | -2 | 53 | 0.0 | 0.0 | 0.00 | 0.00 | 0.00 | 72 | 1011.5 |
| 20260507075300 | -2 | 82 | 0.0 | 0.0 | 0.00 | 0.00 | 0.00 | 71 | 1011.8 |
| 20260507074757 | -1 | 82 | 0.0 | 0.0 | 0.00 | 0.00 | 0.00 | 69 | 1011.7 |
| 20260507074255 | -1 | 72 | 0.0 | 0.0 | 0.00 | 0.00 | 0.00 | 69 | 1011.8 |
| 20260507073751 | -1 | 71 | 0.0 | 0.0 | 0.00 | 0.00 | 0.00 | 69 | 1011.7 |
| 20260507073248 | -1 | 71 | 0.0 | 0.0 | 0.00 | 0.00 | 0.00 | 70 | 1011.8 |
| 20260507072746 | -2 | 73 | 0.0 | 0.0 | 0.00 | 0.00 | 0.00 | 70 | 1011.7 |
| 20260507072243 | -1 | 73 | 0.0 | 0.0 | 0.00 | 0.00 | 0.00 | 68 | 1011.7 |
| 20260507071740 | 0 | 73 | 0.0 | 0.0 | 0.00 | 0.00 | 0.00 | 67 | 1011.6 |
| 20260507071236 | 0 | 73 | 0.0 | 0.0 | 0.00 | 0.00 | 0.00 | 65 | 1011.7 |
| 20260507070734 | 0 | 67 | 0.0 | 0.0 | 0.00 | 0.00 | 0.00 | 65 | 1011.8 |
| 20260507070230 | 0 | 52 | 0.0 | 0.0 | 0.00 | 0.00 | 0.00 | 65 | 1011.7 |
| 20260507065727 | 0 | 100 | 0.0 | 0.0 | 0.00 | 0.00 | 0.00 | 65 | 1011.7 |
| 20260507065223 | 0 | 158 | 0.0 | 0.0 | 0.00 | 0.00 | 0.00 | 64 | 1011.9 |
| 20260507064721 | 0 | 139 | 1.6 | 1.6 | 0.00 | 0.00 | 0.00 | 64 | 1012.0 |
| 20260507064215 | 1 | 107 | 3.2 | 3.2 | 0.00 | 0.00 | 0.00 | 62 | 1011.7 |
| 20260507063711 | 1 | 88 | 3.2 | 3.2 | 0.00 | 0.00 | 0.00 | 62 | 1011.8 |
| 20260507063208 | 1 | 90 | 3.2 | 3.2 | 0.00 | 0.00 | 0.00 | 63 | 1012.2 |
| 20260507062705 | 1 | 93 | 1.6 | 3.2 | 0.00 | 0.00 | 0.00 | 62 | 1011.9 |
| 20260507062203 | 1 | 127 | 4.8 | 4.8 | 0.00 | 0.00 | 0.00 | 62 | 1011.9 |
| 20260507061700 | 1 | 107 | 3.2 | 3.2 | 0.00 | 0.00 | 0.00 | 62 | 1011.8 |
| 20260507061158 | 1 | 100 | 3.2 | 3.2 | 0.00 | 0.00 | 0.00 | 63 | 1011.9 |
| 20260507060656 | 0 | 96 | 1.6 | 3.2 | 0.00 | 0.00 | 0.00 | 63 | 1012.0 |
| 20260507060152 | 1 | 86 | 1.6 | 1.6 | 0.00 | 0.00 | 0.00 | 62 | 1012.1 |
| 20260507055648 | 1 | 87 | 4.8 | 4.8 | 0.00 | 0.00 | 0.00 | 62 | 1011.7 |
| 20260507055144 | 1 | 89 | 3.2 | 3.2 | 0.00 | 0.00 | 0.00 | 61 | 1011.9 |
| 20260507054640 | 1 | 94 | 4.8 | 4.8 | 0.00 | 0.00 | 0.00 | 61 | 1012.0 |
| 20260507054137 | 1 | 73 | 4.8 | 4.8 | 0.00 | 0.00 | 0.00 | 61 | 1012.0 |
| 20260507053635 | 1 | 103 | 4.8 | 4.8 | 0.00 | 0.00 | 0.00 | 61 | 1012.0 |
| 20260507053133 | 1 | 101 | 4.8 | 4.8 | 0.00 | 0.00 | 0.00 | 61 | 1012.0 |
| 20260507052631 | 1 | 101 | 4.8 | 4.8 | 0.00 | 0.00 | 0.00 | 60 | 1012.1 |
| 20260507052127 | 1 | 99 | 4.8 | 4.8 | 0.00 | 0.00 | 0.00 | 60 | 1012.0 |
| 20260507051624 | 2 | 105 | 4.8 | 4.8 | 0.00 | 0.00 | 0.00 | 59 | 1012.0 |
| 20260507051121 | 2 | 110 | 4.8 | 4.8 | 0.00 | 0.00 | 0.00 | 58 | 1011.9 |
| 20260507050618 | 2 | 116 | 6.4 | 8.0 | 0.00 | 0.00 | 0.00 | 58 | 1012.1 |
| 20260507050115 | 2 | 110 | 4.8 | 4.8 | 0.00 | 0.00 | 0.00 | 58 | 1012.0 |
| 20260507045612 | 2 | 95 | 4.8 | 4.8 | 0.00 | 0.00 | 0.00 | 58 | 1012.1 |
| 20260507045108 | 2 | 87 | 4.8 | 4.8 | 0.00 | 0.00 | 0.00 | 58 | 1012.2 |
| 20260507044605 | 2 | 101 | 6.4 | 9.7 | 0.00 | 0.00 | 0.00 | 57 | 1012.4 |
| 20260507044102 | 2 | 95 | 6.4 | 8.0 | 0.00 | 0.00 | 0.00 | 56 | 1012.3 |
| 20260507043557 | 2 | 140 | 8.0 | 8.0 | 0.00 | 0.00 | 0.00 | 55 | 1012.4 |
| 20260507043055 | 3 | 77 | 4.8 | 8.0 | 0.00 | 0.00 | 0.00 | 54 | 1012.2 |
| 20260507042551 | 3 | 76 | 6.4 | 8.0 | 0.00 | 0.00 | 0.00 | 54 | 1012.4 |
| 20260507042047 | 3 | 74 | 6.4 | 8.0 | 0.00 | 0.00 | 0.00 | 54 | 1012.3 |
| 20260507041544 | 3 | 82 | 3.2 | 4.8 | 0.00 | 0.00 | 0.00 | 55 | 1012.3 |
| 20260507041041 | 3 | 83 | 4.8 | 4.8 | 0.00 | 0.00 | 0.00 | 54 | 1012.3 |
| 20260507040537 | 3 | 64 | 4.8 | 4.8 | 0.00 | 0.00 | 0.00 | 54 | 1012.5 |
| 20260507040033 | 3 | 75 | 4.8 | 4.8 | 0.00 | 0.00 | 0.00 | 51 | 1012.4 |
| 20260507035530 | 3 | 70 | 4.8 | 4.8 | 0.00 | 0.00 | 0.00 | 51 | 1012.6 |
| 20260507035026 | 3 | 71 | 4.8 | 4.8 | 0.00 | 0.00 | 0.00 | 51 | 1012.4 |
| 20260507034523 | 4 | 73 | 4.8 | 8.0 | 0.00 | 0.00 | 0.00 | 50 | 1012.6 |
| 20260507034021 | 4 | 62 | 6.4 | 8.0 | 0.00 | 0.00 | 0.00 | 50 | 1012.6 |
| 20260507033519 | 4 | 62 | 4.8 | 4.8 | 0.00 | 0.00 | 0.00 | 50 | 1012.9 |
| 20260507033016 | 4 | 69 | 4.8 | 4.8 | 0.00 | 0.00 | 0.00 | 50 | 1012.5 |
| 20260507032512 | 4 | 65 | 3.2 | 4.8 | 0.00 | 0.00 | 0.00 | 50 | 1012.9 |
| 20260507032009 | 4 | 71 | 4.8 | 4.8 | 0.00 | 0.00 | 0.00 | 50 | 1012.6 |
| 20260507031505 | 5 | 56 | 4.8 | 4.8 | 0.00 | 0.00 | 0.00 | 49 | 1012.6 |
| 20260507031003 | 5 | 64 | 4.8 | 8.0 | 0.00 | 0.00 | 0.00 | 49 | 1012.5 |
| 20260507030459 | 5 | 72 | 4.8 | 4.8 | 0.00 | 0.00 | 0.00 | 49 | 1012.6 |
| 20260507025956 | 5 | 60 | 4.8 | 4.8 | 0.00 | 0.00 | 0.00 | 49 | 1012.7 |
| 20260507025453 | 5 | 58 | 4.8 | 4.8 | 0.00 | 0.00 | 0.00 | 48 | 1012.9 |
| 20260507024951 | 5 | 57 | 4.8 | 4.8 | 0.00 | 0.00 | 0.00 | 48 | 1012.9 |
| 20260507024448 | 5 | 54 | 3.2 | 3.2 | 0.00 | 0.00 | 0.00 | 47 | 1012.7 |
| 20260507023944 | 5 | 49 | 4.8 | 8.0 | 0.00 | 0.00 | 0.00 | 47 | 1012.7 |
| 20260507023441 | 6 | 59 | 3.2 | 3.2 | 0.00 | 0.00 | 0.00 | 47 | 1012.6 |
| 20260507022938 | 6 | 58 | 3.2 | 3.2 | 0.00 | 0.00 | 0.00 | 46 | 1012.5 |
| 20260507022436 | 6 | 56 | 4.8 | 4.8 | 0.00 | 0.00 | 0.00 | 46 | 1012.9 |
| 20260507021931 | 6 | 49 | 4.8 | 4.8 | 0.00 | 0.00 | 0.00 | 45 | 1012.6 |
| 20260507021426 | 6 | 56 | 3.2 | 3.2 | 0.00 | 0.00 | 0.00 | 45 | 1012.6 |
| 20260507020924 | 6 | 59 | 3.2 | 3.2 | 0.00 | 0.00 | 0.00 | 44 | 1012.9 |
| 20260507020421 | 7 | 52 | 3.2 | 3.2 | 0.00 | 0.00 | 0.00 | 43 | 1012.7 |
| 20260507015918 | 7 | 51 | 1.6 | 3.2 | 0.00 | 0.00 | 0.00 | 44 | 1012.9 |
| 20260507015416 | 7 | 44 | 1.6 | 3.2 | 0.00 | 0.00 | 0.00 | 43 | 1012.5 |
| 20260507014913 | 7 | 52 | 1.6 | 1.6 | 0.00 | 0.00 | 0.00 | 43 | 1012.7 |
| 20260507014409 | 7 | 46 | 1.6 | 1.6 | 0.00 | 0.00 | 0.00 | 43 | 1012.5 |
| 20260507013905 | 7 | 48 | 3.2 | 4.8 | 0.00 | 0.00 | 0.00 | 42 | 1012.6 |
| 20260507013402 | 8 | 11 | 3.2 | 3.2 | 0.00 | 0.00 | 0.00 | 42 | 1012.5 |
| 20260507012859 | 8 | 25 | 0.0 | 0.0 | 0.00 | 0.00 | 0.00 | 42 | 1012.7 |
| 20260507012355 | 8 | 16 | 4.8 | 4.8 | 0.00 | 0.00 | 0.00 | 42 | 1012.6 |
| 20260507011847 | 8 | 341 | 6.4 | 8.0 | 0.00 | 0.00 | 0.00 | 41 | 1012.6 |
| 20260507011344 | 8 | 348 | 6.4 | 8.0 | 0.00 | 0.00 | 0.00 | 41 | 1012.7 |
| 20260507010838 | 9 | 34 | 1.6 | 3.2 | 0.00 | 0.00 | 0.00 | 40 | 1012.5 |
| 20260507010334 | 9 | 2 | 9.7 | 11.3 | 0.00 | 0.00 | 0.00 | 39 | 1012.9 |
| 20260507005831 | 9 | 7 | 8.0 | 9.7 | 0.00 | 0.00 | 0.00 | 38 | 1012.6 |
| 20260507005328 | 10 | 353 | 6.4 | 8.0 | 0.00 | 0.00 | 0.00 | 38 | 1012.7 |
| 20260507004824 | 10 | 335 | 8.0 | 11.3 | 0.00 | 0.00 | 0.00 | 38 | 1012.9 |
| 20260507004322 | 10 | 340 | 9.7 | 12.9 | 0.00 | 0.00 | 0.00 | 38 | 1013.0 |
| 20260507003819 | 10 | 29 | 8.0 | 9.7 | 0.00 | 0.00 | 0.00 | 38 | 1012.9 |
| 20260507003314 | 10 | 4 | 6.4 | 8.0 | 0.00 | 0.00 | 0.00 | 38 | 1013.1 |
| 20260507002809 | 10 | 349 | 9.7 | 12.9 | 0.00 | 0.00 | 0.00 | 37 | 1012.6 |
| 20260507002306 | 10 | 288 | 8.0 | 8.0 | 0.00 | 0.00 | 0.00 | 37 | 1012.9 |
| 20260507001757 | 10 | 355 | 9.7 | 12.9 | 0.00 | 0.00 | 0.00 | 37 | 1012.5 |
| 20260507001255 | 11 | 321 | 6.4 | 9.7 | 0.00 | 0.00 | 0.00 | 36 | 1012.9 |
| 20260507000751 | 10 | 319 | 11.3 | 12.9 | 0.00 | 0.00 | 0.00 | 37 | 1013.2 |
| 20260507000246 | 11 | 344 | 14.5 | 17.7 | 0.00 | 0.00 | 0.00 | 37 | 1013.2 |
| 20260506235743 | 10 | 300 | 6.4 | 8.0 | 0.00 | 0.00 | 0.00 | 38 | 1013.1 |
| 20260506235239 | 9 | 297 | 8.0 | 9.7 | 0.00 | 0.00 | 0.00 | 39 | 1013.1 |
| 20260506234736 | 10 | 344 | 4.8 | 8.0 | 0.00 | 0.00 | 0.00 | 39 | 1013.1 |
| 20260506234233 | 10 | 316 | 9.7 | 12.9 | 0.00 | 0.00 | 0.00 | 37 | 1013.2 |
| 20260506233731 | 10 | 331 | 12.9 | 14.5 | 0.00 | 0.00 | 0.00 | 38 | 1013.3 |
| 20260506233227 | 10 | 7 | 16.1 | 20.9 | 0.00 | 0.00 | 0.00 | 36 | 1013.3 |
| 20260506232724 | 10 | 335 | 8.0 | 9.7 | 0.00 | 0.00 | 0.00 | 39 | 1013.5 |
| 20260506232218 | 10 | 319 | 9.7 | 11.3 | 0.00 | 0.00 | 0.00 | 38 | 1013.3 |
| 20260506231716 | 10 | 288 | 9.7 | 12.9 | 0.00 | 0.00 | 0.00 | 39 | 1013.5 |
| 20260506231214 | 10 | 299 | 11.3 | 12.9 | 0.00 | 0.00 | 0.00 | 39 | 1013.4 |
| 20260506230710 | 10 | 330 | 8.0 | 11.3 | 0.00 | 0.00 | 0.00 | 41 | 1013.5 |
| 20260506230208 | 10 | 303 | 9.7 | 12.9 | 0.00 | 0.00 | 0.00 | 39 | 1013.5 |
| 20260506225704 | 10 | 305 | 12.9 | 14.5 | 0.00 | 0.00 | 0.00 | 38 | 1013.4 |
| 20260506225201 | 10 | 335 | 17.7 | 17.7 | 0.00 | 0.00 | 0.00 | 36 | 1013.8 |
| 20260506224657 | 10 | 320 | 6.4 | 8.0 | 0.00 | 0.00 | 0.00 | 40 | 1013.6 |
| 20260506224155 | 10 | 296 | 11.3 | 11.3 | 0.00 | 0.00 | 0.00 | 38 | 1013.6 |
| 20260506223651 | 11 | 272 | 12.9 | 14.5 | 0.00 | 0.00 | 0.00 | 38 | 1013.7 |
| 20260506223146 | 11 | 357 | 3.2 | 3.2 | 0.00 | 0.00 | 0.00 | 36 | 1013.7 |
| 20260506222644 | 10 | 22 | 11.3 | 14.5 | 0.00 | 0.00 | 0.00 | 39 | 1013.6 |
| 20260506222139 | 10 | 287 | 8.0 | 9.7 | 0.00 | 0.00 | 0.00 | 39 | 1013.6 |
| 20260506221638 | 11 | 301 | 16.1 | 20.9 | 0.00 | 0.00 | 0.00 | 38 | 1013.8 |
| 20260506221136 | 10 | 310 | 8.0 | 9.7 | 0.00 | 0.00 | 0.00 | 40 | 1013.7 |
| 20260506220632 | 10 | 308 | 8.0 | 11.3 | 0.00 | 0.00 | 0.00 | 41 | 1014.2 |
| 20260506220127 | 10 | 326 | 16.1 | 17.7 | 0.00 | 0.00 | 0.00 | 41 | 1013.9 |
| 20260506215624 | 11 | 254 | 12.9 | 17.7 | 0.00 | 0.00 | 0.00 | 39 | 1014.0 |
| 20260506215119 | 10 | 337 | 9.7 | 11.3 | 0.00 | 0.00 | 0.00 | 38 | 1014.1 |
| 20260506214616 | 9 | 338 | 6.4 | 8.0 | 0.00 | 0.00 | 0.00 | 42 | 1014.2 |
| 20260506214114 | 11 | 326 | 11.3 | 16.1 | 0.00 | 0.00 | 0.00 | 41 | 1014.3 |
| 20260506213612 | 10 | 305 | 3.2 | 3.2 | 0.00 | 0.00 | 0.00 | 45 | 1014.0 |
| 20260506213109 | 10 | 289 | 11.3 | 12.9 | 0.00 | 0.00 | 0.00 | 42 | 1014.3 |
| 20260506212606 | 9 | 292 | 11.3 | 12.9 | 0.00 | 0.00 | 0.00 | 43 | 1014.3 |
| 20260506212101 | 10 | 295 | 12.9 | 12.9 | 0.00 | 0.00 | 0.00 | 42 | 1014.4 |
| 20260506211556 | 9 | 297 | 11.3 | 12.9 | 0.00 | 0.00 | 0.00 | 44 | 1014.8 |
| 20260506211048 | 10 | 285 | 11.3 | 16.1 | 0.00 | 0.00 | 0.00 | 42 | 1014.5 |